Wind_Speed
17 12 9 13 17 17 20 19 21 20 21 30 31 28 28 35 29 18 12 13 17 25 18 19 23 23 26 30 31 33 35 36 39 40 39 38 37 36 34 33 35 38 40 38
16 6 11 16 19 21 21 16 14 16 26 32 31 34 26 20 14 13 13 16 15 17 21 23 26 28 28 30 33 34 36 38 40 40 40 40 38 34 33 32 30 33 36 37
8 8 15 17 23 16 15 15 20 25 32 30 22 26 20 12 8 14 14 11 17 21 25 26 27 29 31 32 32 32 32 31 33 36 38 38 39 39 38 37 36 34 37 37
9 13 17 22 13 19 13 19 28 30 28 19 19 13 13 11 11 9 9 18 25 27 24 27 31 28 28 29 30 33 32 31 31 30 31 33 33 32 33 36 37 39 37 39
9 17 19 10 19 21 15 31 32 29 19 13 4 9 7 14 5 7 15 25 27 20 24 29 30 33 35 35 32 29 30 30 33 35 34 34 35 34 35 32 37 40 41 41
19 15 11 17 19 21 30 27 26 19 9 7 1 5 16 11 8 12 20 19 21 26 29 35 38 37 34 30 30 31 33 34 34 36 35 34 33 32 33 33 31 34 39 38
13 11 14 13 18 18 23 18 12 7 6 10 6 15 25 9 10 18 28 32 28 28 33 36 35 35 30 29 31 30 30 32 32 32 32 28 28 29 31 31 29 29 32 38
12 7 13 21 20 14 11 11 5 7 10 21 29 12 6 8 18 20 26 27 27 34 32 32 30 31 32 35 30 29 29 30 31 31 29 28 27 27 27 28 27 28 29 36
12 7 21 23 15 14 13 10 12 17 20 15 12 19 23 10 17 32 20 27 30 30 33 31 28 29 32 30 30 30 30 33 33 33 30 27 29 28 29 27 26 28 25 31
11 13 14 13 17 14 10 15 7 8 6 15 16 29 23 21 36 29 28 30 29 30 30 27 24 26 26 28 28 28 31 35 37 34 30 28 28 29 30 27 23 28 27 25
20 8 13 21 14 18 13 7 6 12 15 11 15 13 25 36 27 27 30 27 25 23 23 24 24 24 23 24 26 30 33 34 33 30 28 27 28 28 30 29 21 24 25 23
15 14 13 20 10 12 4 4 8 15 22 26 28 35 29 23 30 26 25 24 20 20 23 25 27 27 27 29 31 32 30 31 31 29 28 27 27 27 30 29 20 24 19 19
20 7 15 11 8 9 8 18 22 23 26 31 24 29 34 30 28 25 23 22 21 22 24 27 28 29 30 33 33 35 33 33 32 29 28 27 26 26 28 27 22 21 14 8
15 10 14 17 26 26 29 32 24 21 25 31 35 33 28 26 23 22 21 21 22 23 25 28 32 32 31 31 31 32 30 30 31 28 27 26 24 25 25 27 24 16 4 7
16 19 19 21 26 27 25 27 27 23 23 26 30 27 23 22 20 20 21 23 24 26 28 31 34 34 30 29 27 28 28 28 29 27 26 26 24 24 23 26 22 13 6 7
22 15 23 23 18 15 25 25 13 14 19 21 22 24 13 18 19 23 23 27 27 29 30 32 33 34 31 30 30 29 29 28 29 28 27 25 24 23 23 23 19 10 8 5
19 13 14 14 20 25 19 5 15 16 18 17 15 17 20 23 25 25 29 30 30 31 32 33 34 34 33 33 31 31 30 30 30 29 28 25 24 22 21 22 17 5 7 7
13 12 9 19 22 10 4 20 25 18 20 14 14 17 21 24 30 24 25 28 31 33 35 35 35 36 36 34 32 32 31 33 32 31 30 24 21 21 20 20 15 8 6 5
8 8 10 8 19 28 22 8 16 23 26 23 21 23 25 25 28 23 24 26 31 34 35 35 36 38 39 37 36 36 43 44 42 39 29 23 18 18 17 15 11 8 5 4
9 16 15 18 7 8 12 21 24 26 30 5 22 27 28 27 27 27 28 30 32 34 36 37 38 40 40 40 41 41 45 51 35 33 26 19 16 15 15 11 7 6 8 1
14 15 11 10 13 18 19 15 30 17 25 36 33 29 28 27 26 31 32 32 33 36 37 38 40 42 42 41 44 53 48 38 29 23 23 16 13 13 12 9 2 8 8 5
8 8 9 13 14 9 18 29 24 31 36 35 28 25 24 24 26 28 29 32 36 38 38 39 43 43 41 50 50 41 29 21 19 15 17 12 10 12 9 4 7 6 8 15
7 11 17 12 18 25 25 27 32 26 31 30 27 21 21 24 30 29 32 36 38 38 40 42 43 46 51 48 39 29 22 18 13 12 16 9 10 10 6 6 9 15 22 24
15 21 22 22 19 28 33 23 24 24 26 26 23 21 18 25 30 32 35 38 38 39 41 42 48 50 50 37 30 28 18 14 7 9 13 10 9 6 2 9 8 23 25 26
11 17 20 24 27 36 26 26 26 21 19 17 16 18 16 26 30 34 37 37 37 40 41 45 55 50 37 30 31 31 18 7 5 12 13 9 7 3 4 7 7 24 38 24
13 17 23 33 34 33 32 18 13 15 12 12 16 16 15 25 31 34 35 35 38 40 43 55 47 34 29 31 29 15 5 6 13 16 12 7 5 7 2 13 17 27 32 15
Wind_Direction
338 340 349 351 347 341 332 320 313 315 312 319 317 306 310 301 299 298 280 273 275 292 288 288 290 287 289 294 295 293 290 287 286 283 279 275 276 275 273 274 268 263 262 258
345 359 348 339 339 331 328 329 323 328 320 319 316 308 294 301 292 265 266 286 288 287 292 298 300 304 302 299 299 298 296 293 291 291 289 288 285 277 275 269 265 264 262 256
8 347 336 334 328 340 334 328 323 318 323 321 304 313 299 309 271 254 289 285 304 306 308 307 306 306 303 299 300 304 303 303 297 293 291 288 285 283 276 270 265 258 259 255
339 330 329 328 335 338 334 325 323 321 321 314 321 297 298 307 268 270 288 312 313 313 311 308 307 299 303 309 310 311 312 305 306 295 289 286 288 284 277 263 260 255 250 253
316 328 331 350 333 337 320 322 324 313 300 300 257 279 293 310 277 307 322 316 315 318 314 307 305 308 313 316 316 309 302 302 299 298 297 298 292 290 286 287 271 259 248 245
331 338 341 330 328 326 324 330 325 307 277 259 298 317 293 308 291 318 316 335 327 312 306 306 308 311 313 310 310 310 307 305 300 295 296 297 298 292 289 287 283 273 262 246
338 332 319 324 327 327 335 347 326 302 290 315 329 306 282 310 313 323 331 317 313 317 312 306 307 308 303 303 309 307 304 305 307 303 307 306 300 296 293 290 285 289 266 251
342 325 328 321 326 325 324 348 309 295 311 303 306 267 307 277 318 330 325 316 313 306 307 312 313 301 297 306 307 308 307 314 320 313 317 320 314 306 304 293 284 288 274 251
341 311 315 315 330 323 318 318 287 284 286 289 262 283 292 310 312 326 327 324 314 314 315 316 315 304 299 307 308 306 304 310 316 316 314 319 319 315 313 304 288 278 276 258
323 306 311 331 324 313 301 296 299 275 279 293 291 301 300 314 318 319 320 323 321 321 324 326 321 316 311 307 305 304 306 310 313 312 311 316 317 316 317 314 295 289 269 266
334 317 306 318 309 293 303 291 273 277 274 289 302 287 306 310 314 319 317 320 320 326 333 334 329 323 320 316 309 304 304 306 309 307 307 313 314 316 317 323 310 298 281 267
330 308 288 300 294 297 313 283 290 280 287 278 284 284 305 311 315 316 321 319 316 319 324 325 323 319 314 309 308 309 309 308 310 306 307 313 314 318 318 327 311 292 274 266
317 294 314 314 309 310 296 292 290 284 281 272 283 286 303 307 312 314 321 320 313 318 322 325 323 319 314 312 312 310 306 309 313 310 310 312 316 315 321 324 312 304 296 300
304 266 262 269 284 294 296 304 298 285 276 285 282 294 309 315 319 320 322 320 318 319 323 322 323 322 318 318 319 317 311 306 311 316 314 314 315 318 321 324 320 304 279 287
303 285 284 285 290 295 293 291 299 292 283 277 282 293 307 312 314 320 324 325 321 320 323 324 325 326 326 324 324 321 317 312 313 318 316 316 316 320 317 323 318 298 269 267
301 288 304 301 302 302 295 297 294 301 306 290 285 290 303 304 305 305 320 322 321 323 322 324 327 328 326 323 323 322 317 315 316 318 317 317 315 319 316 320 319 305 285 244
303 311 316 301 311 312 298 261 319 309 311 293 284 286 295 303 293 301 324 320 319 319 321 326 328 328 328 326 323 319 317 315 315 314 315 314 312 316 312 319 323 289 283 224
307 314 299 297 314 293 315 323 310 314 309 260 293 317 306 301 300 303 323 318 315 318 324 326 326 325 327 325 322 319 319 315 312 308 310 308 307 309 311 318 318 245 257 238
309 319 307 294 308 294 311 303 328 331 302 293 321 308 306 299 294 302 322 318 318 320 323 324 322 321 322 319 314 311 314 308 302 299 298 301 306 303 309 314 312 211 231 276
306 312 302 305 295 291 313 313 317 319 295 298 326 330 325 329 321 314 323 324 322 323 325 322 320 320 319 316 313 311 309 309 304 286 288 299 304 300 308 314 301 196 192 283
310 310 293 304 296 286 303 313 323 304 307 298 313 321 319 326 324 318 321 322 322 327 325 322 321 321 322 320 317 311 309 306 297 275 268 287 300 302 315 315 231 181 189 151
302 307 306 307 292 302 321 314 310 302 304 308 310 314 312 320 324 321 320 323 327 327 326 326 325 326 326 322 319 317 315 311 286 255 247 269 289 304 307 311 153 178 198 165
299 297 293 275 281 320 328 317 323 315 309 307 303 303 311 321 325 324 323 328 330 329 330 330 329 328 327 326 323 323 318 306 286 224 232 249 271 295 299 134 129 142 145 174
311 309 291 309 324 319 326 337 335 324 310 308 304 300 308 320 325 323 326 330 332 333 333 333 331 328 329 328 328 325 312 309 290 202 217 240 266 274 265 168 67 162 170 164
317 311 315 305 319 320 344 320 324 321 324 311 302 299 313 321 322 323 330 332 335 336 337 337 332 332 332 330 329 322 312 282 192 171 202 231 251 238 170 171 216 180 176 173
331 331 325 319 330 332 335 334 316 326 329 321 314 309 311 315 320 328 333 337 338 339 341 336 336 338 339 329 332 342 336 163 155 157 184 212 194 156 224 254 199 169 167 159
Height
3159 3159 3157 3156 3155 3155 3153 3151 3149 3147 3142 3136 3133 3128 3125 3117 3113 3112 3111 3108 3105 3103 3102 3099 3096 3092 3088 3085 3082 3078 3075 3072 3069 3067 3066 3065 3064 3063 3062 3061 3061 3060 3060 3060
3158 3155 3155 3154 3153 3152 3150 3148 3146 3142 3138 3132 3126 3119 3115 3111 3111 3111 3109 3105 3101 3097 3094 3091 3088 3085 3082 3078 3075 3072 3068 3065 3061 3058 3056 3054 3054 3054 3052 3052 3052 3051 3050 3050
3155 3155 3153 3151 3149 3147 3145 3143 3140 3137 3131 3130 3120 3114 3107 3107 3107 3106 3104 3101 3099 3096 3092 3085 3081 3078 3075 3073 3069 3066 3062 3058 3054 3051 3047 3045 3043 3041 3041 3041 3041 3041 3040 3040
3154 3152 3151 3149 3146 3144 3143 3139 3137 3133 3130 3125 3122 3112 3107 3103 3102 3101 3099 3096 3093 3089 3086 3082 3079 3075 3071 3067 3063 3059 3056 3052 3047 3042 3038 3036 3032 3030 3028 3028 3028 3028 3029 3030
3154 3151 3148 3147 3146 3142 3142 3136 3132 3127 3124 3121 3118 3117 3105 3102 3103 3100 3096 3093 3089 3086 3082 3078 3073 3070 3065 3061 3058 3053 3049 3043 3040 3035 3030 3028 3024 3021 3018 3017 3015 3014 3016 3018
3149 3146 3146 3144 3141 3139 3136 3131 3128 3122 3121 3117 3113 3115 3100 3100 3099 3096 3091 3088 3085 3082 3078 3075 3067 3062 3060 3055 3052 3046 3041 3036 3032 3029 3024 3020 3015 3012 3010 3007 3006 3004 3004 3006
3144 3142 3140 3141 3140 3136 3134 3133 3125 3115 3112 3109 3112 3110 3099 3093 3092 3091 3088 3085 3080 3074 3073 3067 3061 3056 3052 3049 3045 3040 3035 3031 3026 3022 3017 3012 3008 3005 3001 2998 2997 2995 2995 2996
3150 3146 3143 3140 3138 3135 3132 3134 3134 3127 3112 3108 3109 3099 3093 3092 3090 3087 3085 3082 3076 3070 3066 3061 3055 3050 3046 3042 3038 3033 3029 3026 3021 3016 3012 3007 3002 2997 2994 2991 2988 2986 2984 2986
3152 3148 3144 3140 3137 3135 3133 3133 3132 3129 3121 3114 3100 3097 3095 3089 3088 3084 3079 3076 3069 3064 3059 3055 3049 3044 3041 3037 3034 3029 3025 3020 3016 3011 3006 3002 2997 2991 2987 2984 2980 2978 2977 2976
3147 3142 3138 3139 3140 3133 3130 3128 3128 3125 3115 3102 3092 3094 3089 3088 3084 3080 3074 3071 3065 3059 3054 3048 3044 3040 3036 3032 3028 3024 3020 3014 3009 3004 3000 2996 2991 2986 2982 2977 2973 2970 2969 2969
3144 3140 3139 3135 3136 3130 3126 3125 3123 3123 3118 3105 3093 3088 3090 3087 3082 3077 3070 3066 3061 3055 3051 3045 3040 3035 3031 3027 3023 3019 3013 3008 3002 2997 2994 2990 2986 2981 2977 2971 2967 2965 2962 2961
3141 3139 3130 3128 3127 3126 3121 3122 3120 3117 3111 3105 3097 3083 3089 3083 3079 3074 3067 3062 3057 3052 3048 3042 3036 3031 3026 3022 3017 3012 3006 3001 2996 2991 2988 2984 2980 2976 2972 2966 2963 2959 2956 2956
3135 3135 3129 3120 3123 3122 3118 3116 3117 3111 3106 3096 3092 3080 3083 3079 3074 3069 3064 3058 3053 3049 3044 3038 3032 3027 3021 3015 3010 3004 2999 2993 2990 2986 2982 2979 2975 2971 2967 2961 2957 2952 2953 2952
3131 3129 3128 3124 3123 3121 3114 3108 3108 3108 3100 3095 3084 3080 3077 3073 3069 3064 3059 3054 3050 3046 3040 3034 3027 3022 3016 3011 3004 2997 2992 2988 2985 2981 2977 2973 2970 2966 2962 2956 2952 2950 2950 2950
3128 3122 3123 3118 3116 3112 3108 3105 3100 3097 3094 3091 3081 3078 3074 3070 3065 3061 3055 3051 3046 3041 3035 3029 3023 3016 3010 3005 3000 2993 2987 2983 2980 2976 2972 2968 2964 2962 2958 2953 2950 2947 2946 2947
3121 3116 3113 3110 3109 3107 3100 3095 3091 3089 3087 3082 3077 3073 3069 3066 3062 3057 3053 3048 3043 3037 3031 3025 3018 3011 3006 3000 2993 2988 2983 2979 2974 2971 2967 2963 2959 2956 2952 2950 2947 2944 2944 2945
3118 3114 3112 3105 3103 3099 3090 3091 3089 3084 3082 3077 3073 3068 3064 3060 3057 3053 3049 3044 3039 3033 3026 3020 3013 3007 3000 2994 2988 2982 2978 2974 2969 2966 2963 2959 2955 2952 2949 2946 2943 2943 2944 2944
3118 3115 3113 3106 3103 3095 3092 3089 3084 3083 3079 3072 3068 3063 3061 3057 3051 3050 3048 3040 3035 3028 3021 3015 3008 3001 2995 2988 2983 2977 2973 2968 2964 2960 2957 2955 2951 2948 2945 2942 2941 2942 2943 2944
3118 3116 3113 3107 3103 3095 3088 3085 3083 3079 3074 3071 3065 3061 3057 3052 3047 3047 3042 3036 3029 3023 3016 3009 3003 2995 2988 2983 2976 2970 2965 2959 2956 2952 2951 2949 2948 2944 2942 2939 2938 2939 2943 2944
3116 3116 3114 3106 3102 3094 3086 3082 3081 3077 3067 3063 3061 3058 3052 3047 3042 3039 3035 3031 3024 3018 3011 3003 2997 2990 2983 2975 2968 2960 2954 2948 2945 2942 2943 2944 2944 2941 2939 2937 2936 2939 2942 2943
3112 3110 3108 3101 3100 3089 3083 3080 3077 3075 3070 3058 3059 3056 3050 3046 3043 3035 3031 3026 3020 3013 3005 2998 2990 2983 2975 2966 2958 2949 2941 2936 2934 2934 2937 2939 2938 2937 2937 2936 2937 2939 2943 2947
3109 3108 3105 3099 3094 3086 3082 3078 3077 3070 3060 3056 3052 3051 3046 3043 3039 3034 3029 3022 3015 3007 2999 2992 2982 2974 2966 2957 2945 2936 2931 2927 2925 2927 2931 2934 2934 2934 2934 2935 2936 2940 2943 2948
3107 3105 3103 3098 3088 3080 3076 3072 3068 3061 3056 3052 3049 3047 3044 3040 3036 3031 3024 3018 3010 3002 2993 2985 2975 2965 2956 2945 2936 2929 2925 2921 2920 2923 2928 2931 2931 2932 2933 2935 2938 2942 2946 2950
3104 3100 3094 3090 3082 3074 3069 3067 3063 3057 3051 3048 3046 3043 3041 3037 3034 3027 3021 3013 3005 2997 2988 2978 2967 2957 2945 2936 2930 2926 2920 2918 2918 2920 2926 2928 2930 2930 2931 2934 2938 2943 2947 2952
3101 3099 3092 3087 3083 3072 3066 3062 3057 3052 3049 3045 3044 3042 3039 3036 3031 3025 3018 3009 3001 2992 2983 2972 2960 2948 2938 2931 2925 2920 2915 2914 2915 2919 2924 2926 2927 2929 2932 2935 2940 2944 2950 2956
3097 3094 3090 3080 3076 3070 3062 3056 3054 3050 3047 3044 3042 3040 3039 3035 3028 3022 3014 3006 2997 2988 2978 2965 2953 2943 2935 2927 2920 2915 2912 2912 2915 2919 2923 2925 2927 2929 2930 2936 2940 2945 2953 2959